[[{"header":{"parameterUnit":"m.s-1","parameterCategory":1,"la1":30.2991,"la2":30.254,"lo1":-89.0895,"lo2":-89.0444,"dy":0.0017,"dx":0.0017,"nx":28,"ny":28,"refTime":"2025-02-08T09:00:00:Z","depth":0,"parameterNumber":2,"parameterNumberName":"U-component_of_WINDS"},"data":[0,0,0,0,0,0,0,0,0,0,0,0,0,0,0,0,0,0,0,0,0,0,0,0,0,0,0,0,0,0,0,0,0,0,0,0,0,0,0,0,0,0,0,0,0,0,0,0,0,0,0,0,0,0,0,0,0,0,0.6439,0.644,0,0.6519,0.652,0.6521,0.6567,0.6567,0.6567,0.6567,0.6651,0.6653,0.6655,0,0,0,0,0,0,0,0,0,0,0,0,0,0.6331,0.6333,0.6439,0.644,0.6441,0.6519,0.652,0.6521,0.6567,0.6567,0.6567,0.6567,0.665,0.6652,0.6655,0,0,0,0,0,0,0,0,0,0,0,0,0,0.6391,0.6334,0.6439,0.6473,0.6477,0.6519,0.652,0.6522,0.6567,0.6567,0.6567,0.6567,0.6649,0.6652,0.6655,0.667,0,0,0.6665,0.6666,0,0,0,0,0,0,0,0,0.6388,0.6395,0.6467,0.6471,0.6475,0.6533,0.6513,0.6571,0.6567,0.6533,0.6567,0.6567,0.6612,0.6618,0.6632,0.6674,0.6677,0.6665,0.6667,0.6668,0.6669,0,0,0,0,0,0,0,0.6384,0.6392,0.6471,0.6468,0.6473,0.6486,0.6495,0.6524,0.657,0.6536,0.6539,0.6548,0.6614,0.6629,0.6635,0.6678,0.6665,0.6668,0.667,0.6671,0.6742,0.6742,0,0,0,0,0,0,0.6374,0.6388,0.6468,0.6473,0.6431,0.6488,0.6498,0.6514,0.657,0.6578,0.6548,0.655,0.6624,0.6631,0.6638,0.6662,0.6668,0.6671,0.6673,0.6742,0.6742,0.6742,0,0,0,0,0,0,0.6371,0.638,0.6465,0.6432,0.6444,0.649,0.6508,0.6516,0.6531,0.6579,0.6587,0.6555,0.6624,0.6633,0.6663,0.6665,0.6673,0.6675,0.6742,0.6742,0.6742,0.6708,0,0,0,0,0,0,0.6368,0.6379,0.6383,0.6432,0.6445,0.6487,0.6508,0.6517,0.6536,0.654,0.6588,0.6596,0.6625,0.6658,0.6666,0.667,0.6678,0.6742,0.6742,0.6742,0.6709,0.6707,0.6705,0,0,0,0,0,0.6364,0.637,0.6383,0.6393,0.6451,0.6487,0.6495,0.6528,0.6536,0.6542,0.6574,0.6594,0.6664,0.666,0.667,0.6675,0.6742,0.6742,0.6742,0.671,0.6707,0.6705,0,0,0,0,0,0,0.632,0.6376,0.6392,0.6413,0.6445,0.6494,0.6503,0.6523,0.6554,0.6556,0.6596,0.6607,0.6633,0.6657,0.6652,0.6695,0.6706,0.6708,0.6678,0.6676,0.6674,0.6668,0.668,0,0,0,0,0,0.6312,0.6335,0.6384,0.6399,0.6414,0.6456,0.6472,0.6496,0.653,0.6544,0.6577,0.6611,0.6641,0.666,0.669,0.6713,0.6727,0.6722,0.672,0.6718,0.6719,0.6738,0.6738,0.6742,0.6742,0.6742,0,0,0.6298,0.6332,0.6343,0.6391,0.6418,0.6443,0.6466,0.649,0.651,0.6548,0.6578,0.6604,0.6645,0.6673,0.6687,0.6693,0.6721,0.6718,0.6716,0.6718,0.6738,0.6738,0.6738,0.6743,0.6743,0.6743,0,0,0.6284,0.631,0.6327,0.6355,0.6397,0.6425,0.6429,0.6477,0.6496,0.6527,0.6558,0.6583,0.6632,0.6662,0.6683,0.6686,0.6708,0.6695,0.6684,0.6703,0.6702,0.6702,0.6707,0.6707,0.6696,0.6696,0.6696,0,0.626,0.6297,0.6333,0.6357,0.6379,0.6415,0.6435,0.646,0.6509,0.6525,0.6532,0.6599,0.6628,0.6666,0.6667,0.6682,0.6691,0.6689,0.6699,0.6699,0.67,0.6705,0.6706,0.6695,0.6695,0.6695,0.6695,0,0.6268,0.6294,0.6303,0.6351,0.6374,0.6395,0.6437,0.6456,0.6479,0.6508,0.6542,0.658,0.6621,0.6631,0.6653,0.6674,0.6677,0.6691,0.6703,0.6697,0.6703,0.6704,0.6692,0.6693,0.6693,0.6694,0,0,0.6225,0.6296,0.6299,0.6323,0.6374,0.6396,0.6421,0.6461,0.6479,0.6513,0.6537,0.6581,0.6596,0.6621,0.6647,0.6663,0.6668,0.6676,0.6677,0.6675,0.6698,0.6688,0.6689,0.6683,0.6683,0.6684,0.6695,0,0.622,0.6265,0.6301,0.6334,0.6361,0.6399,0.6421,0.6457,0.6486,0.6515,0.6547,0.6579,0.6595,0.661,0.6628,0.6663,0.6673,0.6663,0.6708,0.6709,0.6697,0.6691,0.6679,0.6688,0.6697,0.6697,0.6698,0,0.6219,0.6253,0.6289,0.6342,0.6354,0.6374,0.6416,0.6442,0.6485,0.6506,0.6536,0.6564,0.6596,0.6605,0.6652,0.6644,0.6666,0.6687,0.6688,0.6694,0.6703,0.6699,0.6691,0.6693,0.6701,0.67,0.67,0,0.6187,0.6243,0.6272,0.6292,0.6353,0.6367,0.6393,0.6436,0.646,0.6498,0.6514,0.6555,0.6578,0.661,0.6651,0.6653,0.6695,0.6706,0.6715,0.6714,0.6722,0.6721,0.6719,0.6733,0.6733,0.6733,0.6733,0,0.6178,0.6199,0.626,0.6278,0.6304,0.6347,0.6372,0.6403,0.6442,0.6469,0.6504,0.653,0.658,0.6613,0.6645,0.6681,0.6691,0.671,0.6719,0.6708,0.6706,0.6722,0.6723,0.6734,0.6734,0.6733,0.6733,0,0.6147,0.6187,0.6223,0.6279,0.6295,0.6312,0.6362,0.6383,0.6416,0.645,0.6461,0.6513,0.6553,0.6597,0.6652,0.6674,0.671,0.672,0.6695,0.67,0.6707,0.6706,0.6717,0.6722,0.6731,0.6731,0.673,0,0.6138,0.6156,0.6215,0.6236,0.6262,0.6294,0.6319,0.6364,0.6389,0.6442,0.6458,0.6502,0.6539,0.6603,0.6647,0.6691,0.6704,0.6705,0.6711,0.6701,0.6708,0.6706,0.671,0.6703,0.6703,0.6703,0.6702,0,0.612,0.6141,0.6174,0.6217,0.6246,0.6282,0.6319,0.6335,0.6387,0.6415,0.6457,0.6486,0.6544,0.6588,0.6639,0.6669,0.6696,0.6701,0.6706,0.6695,0.668,0.6691,0.6691,0.67,0.67,0.67,0.67,0.6701,0.6102,0.6121,0.6167,0.6205,0.6238,0.6273,0.6297,0.6334,0.637,0.642,0.6446,0.6489,0.6537,0.6608,0.6638,0.6675,0.6682,0.6688,0.669,0.6691,0.669,0.6674,0.6684,0.6684,0.6684,0.6684,0.6684,0,0.6087,0.612,0.6155,0.6207,0.6238,0.626,0.6305,0.633,0.6367,0.6409,0.6446,0.6498,0.6543,0.6592,0.664,0.6661,0.6675,0.6672,0.6672,0.6679,0.6679,0.6671,0.6661,0.6661,0.6661,0.6661,0.6661,0.6661,0.6083,0.6118,0.6145,0.6198,0.6231,0.6274,0.6297,0.6332,0.6366,0.6422,0.6459,0.6491,0.6538,0.6591,0.6635,0.6649,0.6666,0.666,0.6678,0.6677,0.6679,0.668,0.6673,0.6663,0.6663,0.6676,0.6676,0.6676]},{"header":{"parameterUnit":"m.s-1","parameterCategory":1,"la1":30.2991,"la2":30.254,"lo1":-89.0895,"lo2":-89.0444,"dy":0.0017,"dx":0.0017,"nx":28,"ny":28,"refTime":"2025-02-08T09:00:00:Z","depth":0,"parameterNumber":3,"parameterNumberName":"V-component_of_WINDS"},"data":[0,0,0,0,0,0,0,0,0,0,0,0,0,0,0,0,0,0,0,0,0,0,0,0,0,0,0,0,0,0,0,0,0,0,0,0,0,0,0,0,0,0,0,0,0,0,0,0,0,0,0,0,0,0,0,0,0,0,-0.0051,-0.0051,0,-0.0031,-0.0031,-0.0031,-0.0008,-0.0008,-0.0007,-0.0007,0.0017,0.0017,0.0018,0,0,0,0,0,0,0,0,0,0,0,0,0,-0.0064,-0.0064,-0.0051,-0.0051,-0.0051,-0.0031,-0.0031,-0.0031,-0.0008,-0.0007,-0.0007,-0.0007,0.0017,0.0017,0.0018,0,0,0,0,0,0,0,0,0,0,0,0,0,-0.0053,-0.0064,-0.0051,-0.0037,-0.0036,-0.0031,-0.0031,-0.0031,-0.0008,-0.0007,-0.0007,-0.0007,0.0017,0.0017,0.0018,0.0011,0,0,0.0019,0.002,0,0,0,0,0,0,0,0,-0.0053,-0.0052,-0.0039,-0.0038,-0.0036,-0.0022,-0.0027,-0.0016,-0.0008,-0.0018,-0.0007,-0.0006,0.0004,0.0006,0.0008,0.0012,0.0013,0.0019,0.002,0.002,0.002,0,0,0,0,0,0,0,-0.0054,-0.0053,-0.0043,-0.0039,-0.0037,-0.003,-0.0028,-0.0025,-0.001,-0.0017,-0.0016,-0.0014,0.0005,0.0008,0.0009,0.0013,0.0019,0.002,0.002,0.002,0.0017,0.0017,0,0,0,0,0,0,-0.0058,-0.0054,-0.0044,-0.0043,-0.0044,-0.003,-0.0028,-0.0027,-0.001,-0.0007,-0.0014,-0.0013,0.0007,0.0009,0.001,0.0005,0.002,0.002,0.0021,0.0018,0.0017,0.0017,0,0,0,0,0,0,-0.0058,-0.0057,-0.0045,-0.0048,-0.0046,-0.003,-0.003,-0.0027,-0.0024,-0.0008,-0.0005,-0.0015,0.0007,0.0009,0.0011,0.0007,0.0021,0.0021,0.0018,0.0017,0.0017,-0.0005,0,0,0,0,0,0,-0.0059,-0.0058,-0.0062,-0.0048,-0.0046,-0.0046,-0.003,-0.0027,-0.0023,-0.0021,-0.0007,-0.0004,0.0008,0.001,0.0012,0.0007,0.0021,0.0018,0.0018,0.0017,-0.0004,-0.0007,-0.0009,0,0,0,0,0,-0.0059,-0.0069,-0.0062,-0.0061,-0.0051,-0.0046,-0.0045,-0.0032,-0.0024,-0.0027,-0.0016,-0.0005,0.0007,0.001,0.0012,0.0008,0.0019,0.0018,0.0017,-0.0003,-0.0006,-0.0009,0,0,0,0,0,0,-0.0083,-0.0067,-0.0059,-0.0065,-0.0057,-0.0043,-0.0046,-0.0036,-0.0029,-0.0028,-0.001,-0.0007,-0.0007,0.0001,0.0004,0.0004,0.0015,0.0014,-0.0001,-0.0004,-0.0006,-0.0008,0.0022,0,0,0,0,0,-0.0089,-0.0089,-0.0074,-0.008,-0.0076,-0.0062,-0.006,-0.005,-0.0041,-0.0037,-0.0026,-0.0016,-0.001,-0.0006,0.0,-0.0002,0.0003,-0.0004,-0.0006,-0.0008,-0.0009,-0.0006,-0.0008,0.0014,0.0014,0.0014,0,0,-0.0102,-0.0093,-0.0093,-0.0085,-0.0077,-0.0075,-0.0059,-0.0058,-0.0056,-0.0037,-0.0034,-0.0025,-0.0013,-0.0012,-0.0011,-0.0006,-0.0013,-0.0009,-0.0011,-0.0011,-0.0007,-0.0009,-0.0011,0.0013,0.0013,0.0013,0,0,-0.0123,-0.0117,-0.012,-0.0113,-0.0102,-0.0092,-0.0092,-0.0078,-0.0072,-0.0069,-0.0054,-0.0049,-0.0039,-0.003,-0.0024,-0.0038,-0.0026,-0.0036,-0.0048,-0.0046,-0.0047,-0.0049,-0.0052,-0.0053,-0.0036,-0.0036,-0.0036,0,-0.014,-0.0137,-0.0123,-0.0122,-0.0118,-0.01,-0.0101,-0.0094,-0.0082,-0.0078,-0.0072,-0.0057,-0.0048,-0.0043,-0.0046,-0.0042,-0.0041,-0.0038,-0.0048,-0.005,-0.0051,-0.0053,-0.0055,-0.0038,-0.0037,-0.0037,-0.0037,0,-0.0157,-0.0155,-0.0158,-0.0147,-0.0142,-0.0143,-0.0126,-0.0123,-0.0113,-0.0102,-0.0097,-0.0084,-0.0074,-0.0072,-0.0062,-0.0065,-0.0061,-0.0052,-0.0041,-0.0054,-0.0056,-0.0057,-0.0039,-0.0039,-0.0038,-0.0038,0,0,-0.0195,-0.0173,-0.0175,-0.0168,-0.0153,-0.015,-0.0148,-0.0138,-0.0134,-0.0125,-0.0121,-0.0111,-0.0102,-0.0095,-0.0083,-0.0081,-0.0089,-0.0071,-0.0071,-0.0074,-0.0088,-0.0095,-0.0097,-0.0081,-0.0081,-0.0081,-0.0089,0,-0.0213,-0.021,-0.0196,-0.0196,-0.0192,-0.0173,-0.0171,-0.016,-0.0149,-0.0142,-0.0129,-0.0122,-0.0111,-0.0106,-0.0103,-0.0089,-0.0092,-0.0088,-0.0075,-0.0075,-0.0079,-0.0098,-0.0106,-0.0115,-0.009,-0.009,-0.009,0,-0.0234,-0.0226,-0.0226,-0.0208,-0.0206,-0.0205,-0.0192,-0.0187,-0.0173,-0.0164,-0.0155,-0.0141,-0.0135,-0.0124,-0.0114,-0.0111,-0.0104,-0.0096,-0.0096,-0.0094,-0.0084,-0.0096,-0.0117,-0.0118,-0.0091,-0.0091,-0.0091,0,-0.026,-0.0249,-0.0247,-0.0241,-0.0221,-0.022,-0.0211,-0.0196,-0.019,-0.0178,-0.0174,-0.0161,-0.0154,-0.0143,-0.0125,-0.012,-0.0116,-0.0104,-0.0107,-0.0107,-0.0107,-0.0108,-0.0127,-0.0104,-0.0104,-0.0104,-0.0104,0,-0.0281,-0.0282,-0.0258,-0.0257,-0.0255,-0.0237,-0.0235,-0.0224,-0.0211,-0.0205,-0.0187,-0.0181,-0.0158,-0.0149,-0.0134,-0.0126,-0.0123,-0.0115,-0.0111,-0.0116,-0.0117,-0.0112,-0.0111,-0.0104,-0.0104,-0.0104,-0.0104,0,-0.0311,-0.0295,-0.0291,-0.0271,-0.0266,-0.0266,-0.0248,-0.0244,-0.0231,-0.0223,-0.022,-0.0199,-0.0187,-0.0168,-0.015,-0.014,-0.0133,-0.0127,-0.0139,-0.0137,-0.014,-0.0139,-0.0156,-0.0156,-0.0134,-0.0134,-0.0134,0,-0.0325,-0.0325,-0.0305,-0.03,-0.0292,-0.0285,-0.0278,-0.0258,-0.0252,-0.0233,-0.0231,-0.0218,-0.0206,-0.0187,-0.0168,-0.0154,-0.0146,-0.0153,-0.0144,-0.0149,-0.0145,-0.0145,-0.0144,-0.0155,-0.0156,-0.0156,-0.0156,0,-0.0352,-0.0344,-0.0336,-0.0324,-0.0316,-0.0305,-0.0294,-0.029,-0.0268,-0.026,-0.0248,-0.0239,-0.022,-0.0206,-0.0188,-0.0176,-0.0161,-0.0159,-0.0158,-0.0164,-0.017,-0.0166,-0.0144,-0.0159,-0.0159,-0.0159,-0.0158,-0.0158,-0.0374,-0.0371,-0.0356,-0.0347,-0.0336,-0.0325,-0.032,-0.0305,-0.0295,-0.0279,-0.0267,-0.0255,-0.0236,-0.0211,-0.0199,-0.0188,-0.0182,-0.0181,-0.0181,-0.0181,-0.0183,-0.0172,-0.0184,-0.0184,-0.0184,-0.0184,-0.0184,0,-0.0398,-0.0387,-0.0379,-0.0363,-0.0354,-0.0342,-0.0327,-0.032,-0.0311,-0.0295,-0.0284,-0.0268,-0.0253,-0.0232,-0.0215,-0.021,-0.0202,-0.0206,-0.0206,-0.0203,-0.019,-0.0191,-0.0212,-0.0212,-0.0212,-0.0212,-0.0212,-0.0212,-0.041,-0.0405,-0.0395,-0.0383,-0.0371,-0.036,-0.0352,-0.034,-0.0328,-0.0311,-0.0299,-0.0286,-0.0267,-0.0248,-0.0233,-0.0227,-0.0221,-0.0226,-0.0218,-0.0206,-0.0204,-0.0202,-0.0203,-0.0225,-0.0225,-0.0232,-0.0232,-0.0232]}]]